Home   Weather   Lagos   Past weeks

Flag for Nigeria Past Weather in Lagos, Nigeria — Yesterday and Last 2 Weeks

Now
81 °F

Scattered clouds.


Feels Like: 86 °F
Forecast: 73 / 85 °F
Wind: 7 mph from Southwest

Location: Lagos / Ikeja

Current Time: Aug 30, 2016 at 4:08:30 PM

Latest Report: Aug 30, 2016 at 3:00 PM


Visibility: N/A

Pressure: 29.92 "Hg

Humidity: 84%

Dew Point: 75 °F

Location of LagosLocation

Past Weather in Lagos — Graph

°F

Lagos Temperature Yesterday

Maximum temperature yesterday: 86 °F (at 3:00 PM)
Minimum temperature yesterday: 73 °F (at 4:00 AM)
Average temperature yesterday: 78 °F

High & Low Weather Summary for the Past Weeks

 TemperatureHumidityPressure
High86 °F (Aug 17, 3:00 PM)100% (Aug 19, 6:00 AM)30.07 "Hg (Aug 19, 6:00 AM)
Low73 °F (Aug 19, 10:00 PM)62% (Aug 17, 3:00 PM)29.86 "Hg (Aug 27, 4:00 PM)
Average78 °F86%29.97 "Hg
* Reported Aug 15 3:00 PM — Aug 30 3:00 PM, Lagos, Weather by CustomWeather, © 2016

Note: Actual official high and low records may vary slightly from our data, if they occured in-between our weather recording intervals... More about our weather records

Advertising

Lagos Weather History for the Previous 24 Hours

Scroll right to see more
 ConditionsComfort  
Time TempWeatherWind HumidityBarometerVisibility
3:00 PM
Tue, Aug 30
81 °FScattered clouds.7 mph84%29.92 "HgN/A
2:00 PM79 °FScattered clouds.5 mph89%29.95 "HgN/A
1:00 PM81 °FScattered clouds.2 mph74%30.01 "Hg5 mi
12:00 PM79 °FDrizzle. Partly sunny.2 mph89%30.04 "Hg5 mi
11:00 AM81 °FPartly sunny.5 mph84%30.07 "HgN/A
10:00 AM79 °FPartly sunny.5 mph89%30.07 "HgN/A
9:00 AM77 °FPartly sunny.7 mph94%30.04 "Hg5 mi
8:00 AM75 °FPartly sunny.2 mph100%30.01 "Hg5 mi
7:00 AM75 °FThunderstorms. Scattered clouds.3 mph94%29.98 "HgN/A
6:00 AM75 °FThunderstorms. Passing clouds.3 mph94%29.98 "HgN/A
5:00 AM75 °FThunderstorms. Passing clouds.2 mph94%29.98 "HgN/A
4:00 AM75 °FThunderstorms. Passing clouds.2 mph94%29.98 "HgN/A
3:00 AM75 °FPassing clouds.2 mph94%29.95 "HgN/A
2:00 AM75 °FPassing clouds.2 mph94%29.98 "HgN/A
1:00 AM75 °FPassing clouds.2 mph94%29.98 "HgN/A
12:00 AM77 °FPassing clouds.2 mph89%30.01 "HgN/A
5:00 PM
Mon, Aug 29
82 °FScattered clouds.6 mph79%29.92 "HgN/A
4:00 PM84 °FPartly sunny.9 mph74%29.92 "HgN/A
Weather by CustomWeather, © 2016

See weather overviewHow to use our weather pages